Theta_e
313 313 314 315 315 315 315 315 314 313 313 313 313 313 313 313 316 312 311 312 314 317 317 324 324 319 316 316 315 320 328 325 319 317 312 302 303 299 298 300 298 297 297 295 296
312 313 313 314 315 315 315 314 314 312 313 313 313 313 312 313 315 313 312 314 317 318 320 322 321 317 316 315 314 321 326 320 311 310 306 303 303 300 300 299 298 296 294 295 296
311 312 313 313 314 314 314 314 313 312 313 313 313 312 312 314 315 312 313 316 318 320 322 320 316 315 315 313 311 310 316 309 305 304 303 302 301 299 300 301 299 297 295 295 296
310 311 312 313 313 314 314 314 314 313 313 313 313 312 313 316 318 312 315 317 318 321 323 318 316 316 314 314 308 311 305 307 304 302 302 303 300 300 300 299 298 297 294 295 297
311 310 311 312 313 313 314 314 314 313 313 313 312 312 313 311 311 312 315 316 317 318 318 317 317 314 314 310 308 307 304 302 301 300 299 300 300 300 297 295 295 294 294 296 296
313 311 310 311 312 313 313 314 315 314 313 312 312 311 312 313 311 313 315 316 316 316 313 315 314 310 308 305 308 302 302 301 301 300 300 301 299 299 297 294 294 294 295 296 296
312 313 312 311 311 312 314 314 315 315 313 311 311 312 311 312 311 312 314 314 315 315 311 311 310 310 306 305 302 303 305 303 301 301 301 300 301 300 297 295 294 293 295 296 296
313 313 314 312 311 312 314 314 315 315 313 310 310 310 311 311 311 312 312 313 313 312 311 309 309 306 306 303 304 306 306 310 304 302 299 303 308 299 294 295 294 293 295 296 296
314 313 313 314 312 312 313 315 315 314 312 311 311 310 310 311 311 311 312 311 312 311 310 310 307 306 306 309 309 308 312 310 308 302 301 302 305 299 294 295 294 292 293 295 296
314 314 313 314 313 313 314 315 314 314 313 311 310 310 310 310 310 310 310 311 310 310 310 309 305 307 307 308 310 307 310 307 309 304 301 301 303 300 295 295 295 292 291 294 296
317 314 314 314 313 313 315 314 313 311 312 312 311 310 309 309 309 309 310 310 310 309 311 307 312 312 307 306 305 306 306 307 306 303 303 302 303 302 297 295 294 292 291 292 294
321 315 314 314 313 314 315 312 312 312 313 310 309 309 309 310 310 308 309 310 311 311 309 310 311 306 303 304 304 306 307 306 304 303 303 303 304 302 298 296 295 293 291 292 293
321 319 314 314 314 315 315 315 316 313 310 310 309 310 309 310 309 309 308 308 309 309 309 311 308 305 306 304 305 304 305 303 303 302 302 302 304 300 297 295 294 292 292 290 292
322 321 315 314 314 314 316 316 316 312 308 310 311 310 310 308 309 307 308 308 307 308 306 307 304 306 305 306 303 304 302 303 304 306 309 301 312 303 298 297 294 294 291 292 293
322 322 319 314 311 314 315 316 316 310 313 311 311 310 309 310 308 308 307 309 309 307 308 308 305 305 306 305 302 303 303 304 305 305 306 305 307 306 297 300 298 294 291 291 292
322 322 322 314 314 313 314 316 313 310 312 312 310 310 311 309 309 308 308 305 305 306 304 304 302 302 302 301 301 302 304 304 304 305 309 305 307 308 303 302 299 294 292 291 290
322 322 322 314 311 314 314 311 310 311 311 313 311 310 310 310 310 309 309 309 309 309 308 306 305 302 301 303 302 302 304 311 311 311 311 303 304 309 302 298 298 297 293 291 290
321 321 319 313 312 312 313 310 312 311 311 311 311 310 311 309 309 309 309 309 306 307 307 310 309 304 300 301 303 302 304 310 309 309 308 301 306 308 298 295 294 293 292 291 290
321 321 314 311 313 312 308 311 311 310 313 312 311 311 311 311 310 309 308 308 306 306 309 309 310 300 299 299 300 302 305 300 304 303 307 306 305 300 295 294 293 292 291 291 291
320 314 311 312 312 312 309 312 310 310 312 312 314 312 312 311 311 309 309 307 308 304 305 307 309 302 300 300 298 301 299 306 305 311 310 307 305 308 300 298 294 292 292 291 291
312 310 311 312 313 308 313 311 311 310 312 312 312 312 311 312 310 309 310 307 306 304 304 304 306 304 303 302 303 300 301 300 302 303 311 309 311 302 303 300 297 295 293 292 291
307 316 310 312 310 304 310 310 312 314 311 312 311 312 311 310 310 309 310 307 304 303 306 304 303 305 305 300 299 299 300 301 313 306 300 306 310 300 299 298 297 296 292 292 291
307 307 310 310 312 309 309 312 313 314 313 313 313 312 311 311 313 309 309 304 304 303 304 304 305 307 305 303 301 301 300 299 300 301 303 314 313 297 294 295 295 296 292 291 290
305 313 307 304 304 308 311 312 314 311 313 311 312 312 312 312 309 311 309 305 303 305 308 304 302 307 310 308 304 303 300 300 303 307 307 306 307 302 300 297 296 294 293 291 290
307 309 307 310 308 307 309 311 313 314 311 310 311 311 312 312 312 312 307 304 302 309 302 303 306 303 303 303 304 305 303 300 302 303 311 308 304 306 303 299 297 296 292 290 290
309 307 304 306 307 308 310 311 312 313 312 312 312 311 310 312 312 312 307 305 307 303 303 300 307 304 307 304 304 306 305 301 301 300 300 301 303 303 300 295 294 294 292 291 290
309 307 307 307 306 308 309 310 311 312 311 309 309 310 310 309 308 306 303 301 304 304 302 302 304 305 307 304 305 308 305 304 301 299 303 304 307 299 299 297 297 294 292 292 291
Wind_Speed
8 7 6 5 4 4 4 5 7 7 7 9 9 9 11 10 3 3 4 7 9 9 3 5 6 7 9 4 6 1 3 2 5 6 5 5 4 2 3 6 3 4 4 8 11
9 8 6 5 5 4 5 7 6 8 9 9 9 9 10 8 2 4 7 13 9 2 4 6 3 5 4 4 4 4 2 2 0 2 4 7 2 6 4 5 4 7 8 9 9
9 7 7 5 4 5 6 7 8 8 9 10 9 9 7 3 3 1 13 10 6 3 5 7 10 5 5 4 6 3 3 2 4 2 7 7 4 2 10 2 5 9 10 7 7
11 8 7 7 6 5 7 7 8 9 9 9 8 8 4 2 1 5 14 7 4 4 5 6 5 4 4 4 3 5 4 2 2 3 4 6 6 4 3 2 5 13 13 7 7
13 11 9 8 7 7 6 9 9 9 10 8 6 5 1 4 1 8 11 6 2 3 4 3 3 4 5 5 2 4 2 4 4 7 6 6 4 4 4 5 11 12 9 9 6
15 14 12 11 9 9 8 8 9 10 10 7 4 3 1 2 2 7 11 5 7 3 4 4 5 6 7 4 4 2 6 5 3 3 3 4 2 1 4 6 8 8 7 6 6
15 15 15 14 12 10 10 9 8 9 9 5 1 1 3 2 3 6 11 19 9 4 6 8 14 6 5 5 5 4 4 2 1 2 2 5 1 4 7 8 8 7 6 5 4
16 16 16 16 15 12 10 11 10 8 5 1 1 1 2 3 3 3 7 14 19 21 24 20 21 11 5 6 4 3 3 1 2 3 1 0 3 2 8 11 9 7 5 5 4
17 17 17 17 17 15 12 11 9 2 2 1 1 0 1 3 3 3 4 8 10 11 10 8 7 5 3 4 3 4 1 1 1 5 3 2 1 3 7 8 9 7 6 5 3
17 18 18 19 18 15 12 8 0 3 2 3 1 3 1 2 2 4 4 6 4 3 3 6 5 4 2 2 1 2 1 2 3 3 3 3 7 3 8 8 9 8 6 5 4
17 18 18 19 20 14 8 1 3 3 1 3 2 3 1 3 2 4 3 4 3 7 3 4 4 0 3 3 3 4 2 2 1 3 3 5 8 6 10 7 8 9 8 7 5
18 18 18 19 16 7 3 5 2 1 3 0 1 3 2 3 2 3 2 3 3 2 1 4 1 2 5 3 2 2 1 2 1 2 4 0 9 5 8 7 10 11 10 8 4
17 19 20 19 6 3 5 3 2 2 1 3 2 2 2 4 2 1 1 3 3 3 2 4 1 4 2 2 1 2 2 2 2 1 1 5 4 2 1 3 5 8 6 7 9
17 19 20 20 2 7 2 6 5 2 4 3 1 1 2 3 2 1 2 3 4 4 4 3 1 2 1 0 3 1 1 2 2 2 2 3 3 2 2 7 6 9 9 9 9
16 17 18 14 8 3 6 8 1 1 2 1 1 1 2 3 4 3 4 3 5 4 2 1 2 1 1 1 2 2 1 2 2 3 1 1 0 3 2 6 10 12 11 10 9
14 16 17 10 9 4 10 5 1 5 5 2 1 1 3 3 1 1 3 7 3 4 4 2 1 2 2 2 2 5 3 4 3 1 1 0 1 3 4 4 2 4 12 12 10
15 15 16 9 3 6 8 3 4 3 2 2 2 1 3 2 1 1 2 2 4 3 1 1 0 1 1 2 2 2 3 3 2 3 2 2 0 6 4 6 4 4 12 12 10
13 14 11 7 7 6 3 5 3 3 4 2 2 3 3 5 0 0 2 1 2 4 3 3 3 2 1 2 1 1 2 3 2 2 4 1 5 2 2 1 2 3 9 10 10
11 8 6 2 3 2 5 2 6 6 2 6 2 3 1 0 2 1 4 4 5 7 6 4 2 1 3 1 2 1 1 1 5 2 1 2 5 4 1 4 3 5 8 11 11
8 5 2 1 7 5 4 5 4 3 3 2 5 4 4 3 3 3 4 2 2 3 0 4 2 1 0 1 3 3 3 2 2 1 3 3 4 4 6 10 10 10 12 11 10
5 2 2 5 5 4 4 7 5 6 3 4 5 3 4 5 6 4 2 0 1 2 1 4 2 1 1 4 5 2 1 4 3 1 3 2 5 6 8 9 15 15 14 13 13
1 0 0 9 3 1 4 5 2 3 2 3 3 4 7 7 5 3 4 4 2 4 5 2 4 4 3 1 1 2 4 4 3 3 1 1 6 3 5 5 8 11 13 12 12
1 2 2 3 4 2 3 3 3 2 4 3 4 5 2 5 3 4 3 1 1 4 4 5 0 1 1 1 3 3 3 4 4 2 6 4 5 1 3 5 7 8 10 11 12
1 1 3 3 0 6 4 4 4 3 4 3 2 2 3 2 2 4 4 1 1 2 5 2 3 5 6 4 4 4 4 4 4 3 4 7 7 5 8 10 8 10 9 12 13
2 3 1 3 3 5 5 2 4 4 4 3 2 6 6 6 3 4 2 2 1 1 2 4 4 3 5 6 5 5 5 9 9 6 8 3 10 7 11 14 15 14 9 11 13
3 3 2 1 1 5 5 6 8 3 5 3 4 4 5 7 8 7 6 4 6 1 5 1 2 3 4 1 5 5 9 12 14 4 12 13 23 9 8 2 6 12 13 15 15
2 2 3 0 3 5 5 7 8 4 3 1 6 3 3 6 3 2 3 4 6 8 7 4 5 3 5 2 4 6 10 10 5 5 8 9 13 5 5 8 10 12 15 18 17
Wind_Direction
24 32 29 17 14 9 2 0 348 350 349 345 342 344 339 345 25 65 52 336 319 317 330 125 105 91 64 62 42 98 73 151 176 167 151 159 131 68 68 101 70 31 79 109 132
17 14 25 20 1 355 348 343 347 345 342 344 341 340 340 342 81 61 355 334 330 327 135 148 107 70 54 35 23 54 86 119 7 146 160 153 118 129 130 124 79 87 92 116 125
16 13 4 4 5 343 340 338 335 339 342 340 339 339 342 355 73 341 344 343 358 114 125 113 106 73 69 43 7 26 96 136 17 98 129 130 103 98 133 170 169 164 154 138 120
9 5 1 350 344 342 331 332 331 332 337 338 336 347 7 77 101 350 348 355 39 114 126 116 53 65 69 65 13 95 53 73 126 98 102 122 115 88 42 69 147 146 148 141 132
6 2 353 348 336 329 329 329 329 328 330 332 335 353 4 55 13 357 357 11 12 134 98 116 90 116 99 103 77 79 121 56 74 85 82 103 78 130 105 119 112 128 127 132 130
2 360 355 345 337 325 322 324 325 323 323 321 331 353 86 80 92 36 38 48 58 113 84 60 131 108 96 68 57 93 98 111 50 89 98 109 131 102 169 142 126 129 128 141 128
357 357 353 346 338 330 318 316 317 314 314 307 309 104 81 165 100 93 45 45 63 114 98 101 122 68 133 102 159 132 91 89 94 120 106 140 185 219 148 160 146 143 146 139 136
352 351 350 345 338 326 318 313 310 306 297 251 278 159 157 133 102 104 83 66 83 90 95 102 96 95 70 117 55 63 70 39 173 156 106 33 278 159 158 158 168 165 162 163 160
349 347 345 344 337 329 322 315 310 299 190 210 103 164 243 142 130 90 95 111 94 82 81 91 69 91 112 99 72 18 258 230 282 195 134 186 270 153 179 179 177 184 184 184 181
347 344 343 341 337 330 327 319 316 130 156 133 87 36 31 184 122 103 101 129 112 105 34 42 59 85 60 95 249 212 239 241 264 180 178 176 247 188 195 196 196 193 198 202 202
345 344 341 340 335 330 335 171 24 350 35 193 177 148 147 129 105 56 67 112 89 56 44 9 68 129 201 176 129 120 168 238 196 170 179 227 261 227 203 211 200 203 207 210 213
343 343 340 339 336 339 5 89 140 167 318 180 165 123 157 171 106 2 78 104 83 121 43 21 41 155 118 138 125 134 162 261 148 115 193 222 267 271 195 220 206 199 209 209 196
340 342 342 343 340 38 54 54 20 142 117 310 193 169 178 152 134 210 33 109 102 113 77 146 145 141 124 107 135 139 180 195 223 86 189 315 275 285 195 229 204 204 201 205 207
339 343 346 346 33 351 49 355 335 149 57 284 42 347 28 114 64 346 31 120 39 147 121 103 26 150 80 200 134 254 169 131 125 52 299 357 301 268 260 253 218 211 197 204 199
333 340 346 350 329 333 332 335 353 285 355 253 125 88 28 129 140 12 31 34 141 136 111 172 137 140 220 279 190 164 114 99 100 98 47 28 171 254 333 268 233 217 207 206 205
323 334 339 334 320 313 335 334 24 46 259 130 62 116 89 4 44 78 71 55 134 95 47 97 134 80 124 48 50 144 93 54 65 104 39 158 25 264 203 213 253 205 203 202 203
313 322 323 319 317 321 336 31 45 149 344 221 184 170 121 178 334 112 133 116 159 107 223 64 63 70 116 92 1 77 66 341 341 9 249 124 21 254 228 223 227 211 200 199 197
307 313 311 300 277 322 1 50 191 233 221 104 92 87 186 156 173 12 98 217 216 102 122 167 292 158 5 139 242 251 173 147 262 282 296 100 236 243 202 240 263 239 195 182 193
316 308 295 278 293 194 76 87 214 211 170 142 129 143 241 244 152 140 220 217 206 177 165 143 249 353 55 66 98 134 229 138 103 60 310 250 276 247 235 229 228 169 176 194 198
325 316 258 13 138 120 84 227 235 236 136 141 185 171 189 199 171 171 186 208 190 203 283 183 118 333 105 76 61 161 123 59 33 157 278 279 279 250 224 222 214 208 208 207 203
300 55 163 155 134 60 172 225 258 242 236 173 208 160 185 181 178 207 217 232 132 132 65 136 104 24 25 200 185 109 273 48 109 85 180 301 266 209 203 194 200 212 208 202 202
204 258 46 161 70 84 168 203 257 261 169 257 166 178 190 167 176 228 213 203 97 162 160 193 134 185 199 331 136 213 188 162 126 212 62 120 270 179 212 200 204 207 204 202 203
215 263 13 192 161 221 257 257 233 233 222 206 226 198 194 178 182 192 192 350 182 153 167 190 252 11 305 11 356 234 195 121 110 102 203 153 261 164 245 236 228 218 199 197 199
93 193 325 42 357 144 164 230 214 196 242 206 196 126 135 184 242 176 184 174 336 171 115 91 154 187 202 199 130 190 190 192 146 148 183 230 280 218 229 224 218 219 204 196 192
142 249 206 211 248 160 162 187 188 210 211 183 224 206 183 189 169 197 132 132 17 145 41 135 220 187 259 235 187 214 184 182 203 200 203 255 219 247 217 212 213 211 189 189 198
168 154 12 159 50 138 165 218 188 215 179 236 196 227 198 187 189 206 149 193 199 155 170 308 198 155 281 123 199 255 234 208 221 242 270 280 277 217 234 131 186 200 189 200 203
216 153 118 356 145 127 213 203 205 173 213 180 206 166 189 236 194 96 110 75 140 152 174 163 148 127 264 0 304 280 233 188 182 212 202 218 245 165 220 222 223 209 199 205 205